Temperature
14 13 13 13 13 13 13 13 13 13 14 15 15 15 15 15 15 16 16 16 16 16 16 16 16 16 16 16 16 16 16 16 16 16 16 15 15 15
14 13 13 13 13 13 14 14 13 13 13 14 14 14 14 15 15 15 15 15 15 15 15 15 15 15 16 16 16 16 15 15 15 15 15 15 15 15
14 13 13 13 13 13 14 14 14 14 14 14 14 13 13 14 13 13 13 14 14 14 14 14 15 15 15 15 15 14 14 14 14 14 14 15 14 14
13 13 13 13 13 13 14 14 14 14 14 14 13 13 13 13 13 13 13 13 13 13 13 14 14 14 14 14 13 13 13 13 13 14 14 14 14 13
13 13 13 13 13 13 14 14 14 14 14 13 13 13 13 13 13 12 12 12 12 12 12 13 13 13 13 13 13 13 13 13 13 13 13 13 13 13
13 13 13 13 13 13 14 14 14 14 13 13 12 13 13 12 12 12 11 11 11 11 12 12 12 12 12 12 13 13 13 13 13 13 13 13 13 13
12 13 13 13 13 13 13 14 14 14 13 12 12 13 12 12 12 11 11 11 11 11 11 11 11 11 12 12 12 12 12 12 12 12 12 12 12 12
12 12 13 13 13 13 13 13 14 14 13 12 12 12 12 12 12 11 11 10 9 9 10 10 11 11 11 11 11 11 11 11 11 12 11 12 12 12
11 12 12 13 13 13 13 13 13 13 13 13 13 12 12 12 11 11 10 10 10 9 10 10 10 10 10 10 10 10 10 11 11 11 11 11 11 11
11 11 12 12 12 13 13 13 13 13 12 12 12 12 12 11 11 11 10 10 10 9 10 10 9 9 9 9 9 9 9 10 10 10 10 9 9 8
10 11 11 11 12 13 13 12 12 12 11 11 11 11 11 11 11 11 10 10 10 9 9 10 9 9 9 9 9 8 8 8 8 8 8 8 7 7
10 10 11 11 12 12 12 12 12 12 11 11 11 11 11 11 11 11 11 11 10 9 9 10 9 9 8 8 8 8 8 8 7 7 7 7 7 7
10 10 10 11 12 12 12 12 12 12 12 11 11 11 11 10 10 11 11 12 11 11 10 10 10 9 9 8 8 8 8 7 7 7 7 7 7 7
9 9 10 10 11 12 12 12 12 12 12 11 11 11 11 11 11 11 11 11 12 12 11 11 11 10 10 9 8 8 8 7 7 7 7 7 7 7
9 9 9 10 10 11 11 11 12 11 11 11 11 11 11 11 11 11 11 11 11 11 11 11 11 11 10 10 9 8 8 8 7 7 7 7 7 7
9 8 9 9 10 10 10 11 11 11 11 11 11 11 11 11 11 11 11 11 11 11 11 11 11 11 10 10 10 9 8 8 8 7 7 7 7 7
8 8 8 8 9 9 10 11 11 11 11 11 11 11 11 11 11 11 11 11 11 11 11 11 11 11 11 10 9 9 8 8 8 8 8 7 7 7
8 7 8 8 9 9 10 10 11 11 11 11 11 11 11 11 11 11 11 11 11 11 11 11 11 10 9 9 9 9 8 8 8 8 8 7 7 7
7 7 7 8 9 9 9 10 11 11 11 11 11 11 11 11 11 10 10 10 10 10 10 10 10 10 9 9 9 9 9 8 8 8 8 8 8 8
6 7 7 8 8 9 9 10 11 11 11 11 11 11 11 11 10 10 10 10 9 9 9 9 9 10 10 10 9 9 9 9 9 9 9 8 8 8
6 7 7 8 8 9 9 10 11 11 11 11 11 11 11 10 10 10 10 10 9 9 9 9 9 9 9 9 9 9 9 9 9 9 9 9 8 8
6 7 7 8 9 9 10 10 11 11 11 11 11 11 10 10 10 10 10 10 10 10 10 9 9 9 9 10 9 9 9 9 9 9 9 9 9 8
7 7 8 9 9 10 10 11 11 11 11 11 11 11 11 11 11 11 11 10 10 10 10 9 9 9 9 9 10 9 9 9 9 9 9 9 9 8
Wind_Speed
7 8 6 6 6 6 6 5 4 3 3 4 3 2 4 6 7 6 7 13 17 18 18 17 16 16 15 14 13 13 13 13 12 10 7 5 1 4
6 7 7 6 6 5 5 5 6 5 4 3 2 1 4 7 9 8 10 15 16 18 19 18 17 17 17 16 16 16 16 16 16 16 15 15 14 12
8 8 9 8 6 5 5 4 5 5 5 4 3 3 4 9 9 9 10 10 13 18 19 19 18 18 18 18 17 17 17 17 16 16 16 17 17 17
9 9 9 7 7 6 5 6 5 5 5 5 4 3 4 10 10 9 6 9 11 16 18 19 19 19 19 19 18 17 18 17 16 16 16 16 16 17
8 9 9 9 8 6 6 6 5 5 6 6 5 3 4 7 10 9 9 9 10 15 17 18 20 20 20 20 20 19 19 18 17 17 17 17 18 18
7 8 9 9 9 8 7 7 6 6 6 6 6 7 6 8 10 10 9 8 8 10 12 15 18 18 18 19 20 20 20 20 20 20 20 20 20 20
7 8 9 11 12 10 7 6 6 5 4 6 8 7 8 10 10 7 11 10 9 6 9 7 7 8 10 16 19 19 19 18 18 19 20 20 21 21
9 8 9 10 13 14 12 10 8 6 6 6 6 10 10 10 9 12 13 13 7 4 6 6 5 7 5 9 15 17 18 17 16 16 17 18 19 20
8 8 7 8 11 9 10 8 6 6 6 6 9 10 11 12 13 12 10 8 6 7 6 5 4 4 3 8 13 14 15 16 16 15 14 16 18 19
7 8 9 9 10 11 9 6 6 6 6 5 7 9 12 13 12 11 11 9 8 6 4 4 3 3 3 4 7 9 10 12 14 14 14 19 19 20
5 7 10 12 16 15 11 9 7 5 8 12 13 15 17 17 15 12 11 12 9 5 2 4 3 3 2 1 1 4 6 7 10 15 19 24 22 20
4 5 11 15 17 17 12 11 10 7 8 10 12 14 14 14 12 10 11 12 10 5 4 4 5 4 3 1 0 2 2 2 4 9 16 21 20 15
4 3 4 13 17 18 14 10 12 11 10 10 9 8 7 7 6 7 8 11 9 5 7 5 5 4 4 3 1 1 2 1 2 3 8 11 13 12
5 3 1 5 10 13 11 14 17 13 9 9 8 7 7 6 6 7 8 6 6 7 11 8 5 5 5 4 3 1 1 1 2 2 5 7 6 8
4 5 5 8 5 5 10 18 17 11 10 10 9 6 5 6 6 7 8 7 6 6 11 7 7 6 5 5 5 4 2 1 1 2 3 4 5 5
5 6 8 10 5 0 7 14 11 11 11 10 8 6 5 6 7 7 7 7 6 4 5 6 10 10 5 5 6 4 4 4 2 2 3 2 5 10
6 3 3 4 4 1 6 8 8 10 10 7 9 7 6 6 6 5 5 4 5 5 4 4 6 8 8 7 6 5 4 2 3 2 3 3 2 6
7 4 5 5 5 4 6 7 7 9 9 10 11 9 8 8 6 4 4 6 7 6 5 4 7 6 5 6 3 6 4 3 2 2 3 3 2 4
6 6 6 6 5 4 5 6 6 7 9 11 12 10 9 8 7 6 5 5 6 5 4 4 5 6 6 4 2 2 6 4 3 3 3 3 4 5
4 6 7 7 6 5 6 6 7 8 9 10 11 10 9 8 8 7 6 6 5 4 3 2 4 5 6 7 5 3 6 6 5 4 3 2 3 4
4 4 5 6 6 6 6 7 9 9 10 9 10 10 9 8 7 8 8 9 6 4 5 5 4 6 5 5 4 2 4 8 8 6 5 3 2 2
3 2 2 4 6 6 7 8 9 9 10 8 8 8 8 8 9 9 9 8 5 5 5 4 3 4 3 4 5 5 4 5 8 12 10 9 6 5
3 3 4 5 6 7 8 9 11 9 8 8 8 8 8 7 8 8 9 9 7 6 5 5 3 3 3 4 5 5 5 5 4 4 6 14 19 19
Wind_Direction
233 231 231 242 240 236 228 220 228 263 285 281 290 37 108 109 106 103 113 119 121 120 119 120 121 118 112 104 96 91 87 82 78 75 74 78 99 235
222 227 236 242 243 237 225 214 208 217 247 261 266 114 128 118 113 115 117 116 116 117 116 114 111 107 102 97 90 85 81 77 74 72 72 73 72 74
227 229 239 241 237 228 212 198 198 201 235 247 216 144 128 127 118 114 114 111 113 112 113 112 110 106 101 96 91 87 84 81 78 74 70 69 69 71
230 228 238 241 231 221 209 202 198 199 211 231 196 155 133 138 126 116 107 107 109 111 113 115 112 108 104 101 98 94 90 87 83 79 75 74 75 75
235 229 232 232 235 226 213 206 208 210 213 217 187 149 133 139 125 111 108 106 105 112 110 109 108 106 104 102 99 94 92 90 86 83 79 78 79 80
247 240 234 227 227 221 210 210 212 215 214 207 178 159 150 142 133 130 123 115 112 113 106 107 104 100 102 102 100 97 95 93 91 88 86 84 84 85
255 249 244 235 224 206 198 205 203 198 189 184 170 155 153 153 146 139 134 122 108 115 117 111 102 93 94 100 102 103 100 98 98 96 94 92 90 88
258 257 248 233 211 199 196 194 189 176 174 170 165 159 159 154 141 142 139 135 132 153 125 109 102 102 90 100 108 105 100 97 98 103 107 103 96 90
256 253 243 216 189 179 178 170 159 146 154 164 160 154 156 153 143 140 139 130 120 143 121 93 79 93 77 109 110 104 101 97 94 96 109 117 106 95
261 246 221 204 193 175 160 148 135 124 121 119 132 133 141 140 135 134 133 117 108 114 105 104 84 68 46 71 113 112 103 93 85 81 107 127 116 108
267 260 226 204 192 171 155 147 134 120 107 109 112 120 127 132 138 139 139 139 138 135 124 108 121 94 61 37 120 129 112 92 78 81 113 130 124 118
256 271 231 205 184 171 160 156 150 143 126 113 111 119 130 139 145 151 154 153 147 145 166 125 146 134 117 265 216 140 133 115 83 96 123 142 138 129
219 253 240 203 181 174 163 164 160 146 131 122 119 121 129 147 167 169 165 161 158 161 164 141 152 146 135 152 194 162 161 151 150 158 151 156 167 158
193 198 165 169 182 176 167 156 147 138 132 128 128 133 138 145 153 159 161 161 166 161 161 149 142 157 132 126 152 125 73 130 148 158 165 160 163 183
167 154 123 121 142 180 176 155 148 144 143 141 142 139 130 127 120 114 112 111 84 108 150 154 142 141 138 141 150 145 139 180 146 145 144 156 164 160
154 140 120 117 112 286 175 165 158 156 153 149 142 130 116 114 122 125 126 119 101 66 54 130 152 142 134 134 138 146 157 171 187 165 134 140 179 189
156 141 147 138 130 172 180 173 157 150 143 137 141 134 128 124 122 119 118 111 118 123 91 57 74 105 119 134 139 146 153 173 199 171 119 115 194 211
157 166 166 157 154 183 181 164 154 151 149 149 152 150 148 144 136 122 113 124 127 124 120 123 116 97 62 28 85 143 147 168 190 170 139 141 211 242
171 178 173 166 160 182 182 161 153 154 152 156 159 158 154 147 139 132 125 123 125 127 129 132 129 124 132 152 307 168 155 166 168 173 181 179 205 235
177 172 169 166 163 178 173 155 145 150 152 155 157 155 152 148 145 144 144 142 140 129 124 128 144 146 155 167 177 212 195 167 169 186 208 221 256 289
163 154 152 162 169 175 163 148 146 152 154 154 157 157 154 148 153 160 161 157 143 139 154 182 201 157 116 105 114 198 241 219 196 182 184 183 235 296
161 167 176 186 176 169 154 145 146 149 152 151 159 161 156 153 156 163 169 167 164 159 165 165 128 120 122 144 170 195 228 253 243 230 216 193 172 197
203 231 244 218 182 164 153 150 151 154 155 153 157 157 152 147 149 156 163 163 157 154 144 145 146 152 158 155 167 191 217 231 238 246 256 236 229 235
Height
1473 1472 1470 1469 1468 1467 1465 1464 1464 1461 1460 1460 1461 1461 1461 1462 1463 1464 1466 1468 1470 1472 1475 1477 1479 1482 1484 1485 1487 1489 1490 1491 1492 1493 1494 1494 1494 1495
1468 1467 1466 1465 1464 1462 1461 1460 1459 1458 1457 1456 1458 1458 1458 1459 1460 1462 1463 1465 1467 1469 1472 1475 1477 1479 1481 1482 1483 1485 1485 1487 1488 1490 1491 1491 1491 1492
1462 1462 1461 1460 1459 1458 1457 1456 1455 1454 1452 1452 1453 1454 1455 1456 1458 1460 1461 1463 1465 1468 1471 1473 1475 1477 1478 1480 1481 1482 1484 1485 1487 1489 1489 1490 1490 1491
1455 1456 1456 1455 1454 1453 1452 1450 1449 1448 1447 1447 1448 1450 1452 1454 1456 1459 1461 1463 1465 1468 1471 1473 1475 1477 1478 1479 1481 1482 1483 1485 1487 1488 1489 1490 1490 1491
1448 1449 1449 1450 1449 1448 1447 1445 1444 1442 1441 1441 1443 1447 1449 1452 1454 1458 1461 1463 1465 1468 1471 1473 1475 1477 1479 1480 1481 1482 1484 1486 1488 1489 1489 1491 1491 1492
1440 1441 1442 1443 1444 1443 1442 1440 1438 1436 1435 1436 1439 1442 1446 1449 1452 1456 1460 1463 1465 1468 1471 1474 1476 1478 1480 1481 1482 1484 1486 1487 1489 1490 1491 1491 1492 1493
1433 1433 1434 1436 1437 1437 1436 1435 1433 1431 1430 1431 1434 1437 1441 1445 1449 1454 1458 1462 1465 1469 1472 1475 1477 1479 1481 1483 1484 1486 1488 1490 1491 1492 1493 1493 1494 1494
1425 1425 1427 1429 1431 1431 1431 1430 1429 1427 1426 1428 1430 1433 1437 1442 1446 1451 1455 1459 1465 1471 1473 1476 1480 1481 1483 1485 1487 1489 1490 1492 1493 1494 1494 1494 1495 1495
1418 1417 1418 1421 1424 1425 1426 1426 1424 1423 1424 1426 1427 1430 1434 1439 1443 1449 1454 1459 1463 1469 1474 1476 1481 1483 1486 1488 1489 1491 1492 1493 1494 1494 1494 1494 1495 1496
1411 1410 1411 1414 1417 1420 1421 1422 1421 1421 1422 1424 1426 1429 1434 1439 1444 1449 1455 1461 1467 1472 1476 1478 1482 1485 1487 1489 1491 1492 1493 1492 1492 1493 1494 1494 1496 1497
1405 1404 1405 1408 1411 1415 1417 1418 1419 1420 1421 1424 1427 1430 1435 1441 1447 1452 1458 1463 1469 1474 1479 1480 1484 1487 1489 1491 1492 1493 1494 1494 1494 1494 1494 1496 1498 1500
1399 1398 1398 1401 1406 1409 1412 1415 1417 1419 1421 1424 1429 1434 1439 1445 1450 1455 1459 1463 1468 1474 1479 1481 1484 1487 1491 1493 1494 1495 1495 1496 1496 1497 1497 1498 1500 1501
1393 1393 1393 1396 1401 1405 1409 1413 1416 1419 1422 1426 1431 1436 1441 1447 1452 1457 1461 1464 1468 1472 1477 1480 1483 1486 1488 1492 1494 1495 1496 1497 1498 1499 1499 1500 1501 1502
1388 1388 1388 1391 1397 1402 1408 1412 1416 1419 1423 1427 1432 1437 1442 1447 1453 1457 1462 1466 1470 1473 1476 1480 1482 1485 1487 1490 1493 1495 1496 1497 1498 1499 1500 1501 1501 1501
1383 1384 1385 1388 1393 1399 1405 1411 1414 1418 1422 1427 1432 1438 1443 1448 1453 1458 1462 1466 1470 1473 1476 1480 1482 1485 1487 1489 1491 1494 1495 1497 1497 1499 1500 1500 1500 1501
1379 1380 1382 1385 1390 1396 1402 1408 1413 1417 1422 1427 1433 1438 1443 1448 1453 1457 1461 1465 1468 1471 1475 1478 1482 1484 1487 1489 1491 1492 1494 1496 1497 1498 1499 1500 1500 1500
1375 1377 1379 1383 1387 1392 1398 1405 1411 1416 1422 1427 1433 1438 1442 1447 1452 1456 1460 1463 1466 1469 1473 1477 1480 1484 1487 1489 1490 1492 1494 1496 1497 1498 1498 1499 1499 1499
1371 1373 1377 1380 1384 1389 1395 1402 1408 1415 1421 1427 1432 1437 1442 1446 1451 1455 1459 1462 1465 1468 1471 1475 1478 1482 1487 1490 1492 1493 1495 1496 1497 1497 1498 1498 1498 1498
1368 1370 1374 1378 1382 1387 1394 1400 1407 1414 1420 1426 1431 1436 1441 1446 1450 1453 1457 1460 1463 1466 1470 1474 1477 1480 1483 1487 1491 1494 1495 1496 1496 1497 1497 1497 1496 1496
1365 1368 1372 1376 1381 1387 1393 1401 1408 1414 1419 1424 1430 1435 1440 1444 1448 1452 1456 1459 1462 1465 1469 1473 1476 1480 1483 1486 1490 1492 1495 1496 1495 1495 1495 1495 1495 1494
1365 1367 1371 1376 1381 1388 1395 1402 1408 1413 1418 1424 1429 1434 1439 1443 1448 1452 1456 1459 1462 1465 1468 1472 1476 1480 1483 1486 1489 1490 1492 1494 1494 1494 1494 1493 1492 1491
1365 1368 1373 1377 1383 1390 1396 1402 1408 1414 1419 1425 1430 1434 1438 1443 1447 1451 1455 1458 1462 1466 1469 1473 1476 1479 1481 1483 1485 1488 1490 1491 1491 1491 1491 1490 1490 1488
1368 1372 1375 1380 1385 1391 1397 1404 1409 1415 1420 1425 1429 1433 1438 1442 1446 1450 1454 1458 1462 1465 1468 1471 1474 1477 1479 1481 1484 1485 1487 1488 1488 1487 1487 1487 1486 1485